Regional Weather Roundup
Issued by NWS

Home | Current Version | Previous Version | Text Only | Print | Product List | Glossary On
Versions: 1 2 3 4 5 6 7 8 9 10 11 12 13 14 15 16 17 18 19 20 21 22 23 24 25 26 27 28 29 30 31 32 33 34 35 36 37 38 39 40 41 42 43 44 45 46 47 48 49 50
000
ASUS43 KBIS 251320
RWRND

NORTH DAKOTA REGIONAL WEATHER ROUNDUP
NATIONAL WEATHER SERVICE BISMARCK ND
800 AM CDT MON MAY 25 2015

NOTE: "FAIR" INDICATES FEW OR NO CLOUDS BELOW 12,000 FEET WITH NO
SIGNIFICANT WEATHER AND/OR OBSTRUCTIONS TO VISIBILITY.


NDZ001>003-009>011-017-251400-
NORTHWEST NORTH DAKOTA

CITY           SKY/WX    TMP DP  RH WIND       PRES   REMARKS
WILLISTON      PTSUNNY   51  44  77 CALM      29.89S
MINOT          CLOUDY    55  48  77 SW5       29.86S
MINOT AFB      CLOUDY    58  58  99 NW3       29.85S
$$

NDZ018>021-031>035-040>046-251400-
SOUTHWEST NORTH DAKOTA

CITY           SKY/WX    TMP DP  RH WIND       PRES   REMARKS
BISMARCK       LGT RAIN  56  55  97 N6        29.85S
DICKINSON      CLOUDY    55  50  83 N7        29.86S
GARRISON         N/A     57  53  86 N6        29.86R
HETTINGER ARPT LGT RAIN  53  51  93 NE10      29.86S FOG
$$

NDZ004>008-012>016-024-026-027-054-251400-
NORTHEAST NORTH DAKOTA

CITY           SKY/WX    TMP DP  RH WIND       PRES   REMARKS
GRAND FORKS    CLOUDY    58  53  84 W5        29.79S
GRND FRKS AFB  CLOUDY    59  52  77 W3        29.80S
DEVILS LAKE    CLOUDY    61  48  63 CALM      29.83S
$$

NDZ022-023-025-028>030-036>039-047>053-251400-
SOUTHEAST NORTH DAKOTA

CITY           SKY/WX    TMP DP  RH WIND       PRES   REMARKS
FARGO          LGT RAIN  59  55  87 NE12      29.77F
JAMESTOWN      LGT RAIN  57  55  93 NE5       29.81F
$$




USA.gov is the U.S. government's official web portal to all federal, state and local government web resources and services.